Regional Weather Roundup
Issued by NWS Raleigh/Durham, NC

Home | Current Version | Previous Version | Text Only | Print | Product List | Glossary On
Versions: 1 2 3 4 5 6 7 8 9 10 11 12 13 14 15 16 17 18 19 20 21 22 23 24 25 26 27 28 29 30 31 32 33 34 35 36 37 38 39 40 41 42 43 44 45 46 47 48 49 50
000
ASUS42 KRAH 260610
RWRRAH
NORTH CAROLINA WEATHER ROUNDUP
NATIONAL WEATHER SERVICE RALEIGH NC
200 AM EDT TUE MAY 26 2015

NOTE: "FAIR" INDICATES FEW OR NO CLOUDS BELOW 12,000 FEET WITH NO
SIGNIFICANT WEATHER AND/OR OBSTRUCTIONS TO VISIBILITY.

NCZ001-053-055-056-065-067-260700-
WESTERN NORTH CAROLINA

CITY           SKY/WX    TMP DP  RH WIND       PRES   REMARKS
ASHEVILLE      LGT RAIN  68  61  78 S5        30.29F
JEFFERSON      CLOUDY    64  56  77 CALM      30.32F
MORGANTON      CLOUDY    64  61  91 CALM      30.31S
HICKORY        CLOUDY    70  61  73 S9        30.25F
RUTHERFORDTON  CLOUDY    67  63  85 CALM      30.26F
MOUNT AIRY     PTCLDY    65  58  77 CALM      30.28S
BOONE          CLOUDY    64  56  75 S3        30.33F
$$

NCZ021-022-025-041-071-084-088-260700-
CENTRAL NORTH CAROLINA

CITY           SKY/WX    TMP DP  RH WIND       PRES   REMARKS
CHARLOTTE      CLOUDY    70  63  78 S9        30.26F
GREENSBORO     PTCLDY    69  62  78 S9        30.26S
WINSTON-SALEM  PTCLDY    70  62  76 S7        30.27S
RALEIGH-DURHAM PTCLDY    68  61  78 SW8       30.27F
FORT BRAGG     CLEAR     69  63  82 S5        30.27
FAYETTEVILLE   CLEAR     67  62  84 S3        30.27F
BURLINGTON     PTCLDY    69  62  78 S6        30.26S
LAURINBURG     CLEAR     65  62  90 CALM      30.29S
$$

NCZ011-015-027-028-043-044-047-080-103-260700-
NORTHEASTERN NORTH CAROLINA

CITY           SKY/WX    TMP DP  RH WIND       PRES   REMARKS
ROCKY MT-WILSO CLEAR     66  61  84 S5        30.28S
GREENVILLE     CLEAR     66  63  88 CALM      30.29R
WASHINGTON     CLEAR     67  62  82 S5        30.28F
ELIZABETH CITY CLEAR     67  62  84 S7        30.28F
MANTEO         PTCLDY    71  63  76 SW10      30.29F
CAPE HATTERAS  PTCLDY    72  61  68 S12       30.30F
$$

NCZ078-087-090-091-093-098-101-260700-
SOUTHEASTERN NORTH CAROLINA

CITY           SKY/WX    TMP DP  RH WIND       PRES   REMARKS
LUMBERTON      CLEAR     63  62  97 CALM      30.27S
GOLDSBORO      CLEAR     65  62  90 CALM      30.26S
KINSTON        CLEAR     63  61  93 SW3       30.29S
KENANSVILLE    CLEAR     60  58  94 CALM      30.29F
NEW BERN       CLEAR     63  59  87 S5        30.29F
CHERRY POINT   MOCLDY    63  59  87 SE6       30.30F
BEAUFORT       CLEAR     72  63  73 S10       30.29F
JACKSONVILLE   CLEAR     67  62  84 S5        30.27F
WILMINGTON     CLEAR     69  63  81 S3        30.28F
$$




USA.gov is the U.S. government's official web portal to all federal, state and local government web resources and services.